[[{"header":{"parameterUnit":"m.s-1","parameterCategory":1,"la1":30.2991,"la2":30.254,"lo1":-89.0895,"lo2":-89.0444,"dy":0.0017,"dx":0.0017,"nx":28,"ny":28,"refTime":"2023-06-18T21:00:00:Z","depth":0,"parameterNumber":2,"parameterNumberName":"U-component_of_WINDS"},"data":[0,0,0,0,0,0,0,0,0,0,0,0,0,0,0,0,0,0,0,0,0,0,0,0,0,0,0,0,0,0,0,0,0,0,0,0,0,0,0,0,0,0,0,0,0,0,0,0,0,0,0,0,0,0,0,0,0,0,2.4903,2.4903,0,2.4956,2.4957,2.4957,2.4965,2.4964,2.4964,2.4963,2.5018,2.502,2.5022,0,0,0,0,0,0,0,0,0,0,0,0,0,2.4807,2.4809,2.4903,2.4903,2.4904,2.4956,2.4957,2.4958,2.4965,2.4964,2.4963,2.4963,2.5018,2.502,2.5022,0,0,0,0,0,0,0,0,0,0,0,0,0,2.4854,2.481,2.4903,2.4914,2.4915,2.4956,2.4957,2.4958,2.4965,2.4964,2.4963,2.4963,2.5017,2.502,2.5023,2.5056,0,0,2.5032,2.5033,0,0,0,0,0,0,0,0,2.4851,2.4857,2.4911,2.4913,2.4915,2.4953,2.4944,2.4991,2.4965,2.4946,2.4963,2.4962,2.4997,2.5002,2.5014,2.5059,2.5061,2.5032,2.5034,2.5035,2.5036,0,0,0,0,0,0,0,2.4848,2.4855,2.4924,2.4912,2.4914,2.4917,2.4922,2.4953,2.4975,2.4948,2.4948,2.4954,2.4998,2.5011,2.5015,2.5062,2.5032,2.5035,2.5036,2.5037,2.5138,2.5139,0,0,0,0,0,0,2.4842,2.4852,2.4922,2.4925,2.488,2.4919,2.4925,2.4942,2.4975,2.4979,2.4955,2.4955,2.5006,2.5012,2.5017,2.5058,2.5035,2.5038,2.5039,2.5137,2.5138,2.5139,0,0,0,0,0,0,2.484,2.4849,2.492,2.4889,2.4898,2.4921,2.494,2.4943,2.4956,2.4981,2.4985,2.4964,2.5006,2.5013,2.5046,2.506,2.5039,2.5042,2.5136,2.5137,2.5139,2.5141,0,0,0,0,0,0,2.4838,2.4848,2.486,2.4889,2.49,2.4948,2.494,2.4945,2.4961,2.496,2.499,2.4994,2.5006,2.5042,2.5049,2.5064,2.5044,2.5135,2.5137,2.5138,2.514,2.5142,2.5144,0,0,0,0,0,2.4834,2.4859,2.4861,2.4869,2.4916,2.4949,2.4955,2.4968,2.4962,2.4975,2.4991,2.4993,2.5058,2.5045,2.5054,2.5069,2.5134,2.5136,2.5138,2.5139,2.5142,2.5144,0,0,0,0,0,0,2.4831,2.4863,2.4865,2.49,2.4922,2.495,2.4967,2.4971,2.4995,2.4993,2.5009,2.5015,2.5048,2.5062,2.5048,2.5104,2.5095,2.5099,2.5093,2.5096,2.5098,2.5094,2.5046,0,0,0,0,0,2.4834,2.4858,2.4885,2.4913,2.4924,2.4943,2.4958,2.4966,2.4989,2.4999,2.5017,2.504,2.5065,2.5082,2.5106,2.5142,2.5149,2.5157,2.516,2.5161,2.5164,2.5184,2.5188,2.5146,2.5146,2.5146,0,0,2.4841,2.4862,2.4876,2.4913,2.493,2.4955,2.4951,2.4977,2.4996,2.5003,2.5035,2.505,2.5076,2.5111,2.5128,2.5124,2.5178,2.5164,2.5165,2.5167,2.5187,2.5191,2.5194,2.5147,2.5147,2.5147,0,0,2.4866,2.4884,2.491,2.4928,2.4955,2.4968,2.4974,2.5002,2.5012,2.5045,2.5051,2.5074,2.5117,2.5136,2.5151,2.5185,2.5187,2.5192,2.5204,2.5224,2.5227,2.523,2.5242,2.5246,2.5195,2.5195,2.5195,0,2.4871,2.4908,2.4922,2.4948,2.4965,2.4973,2.4999,2.5016,2.5049,2.5061,2.5056,2.5111,2.513,2.5169,2.5177,2.5189,2.5197,2.5188,2.5225,2.5229,2.5232,2.5243,2.5247,2.5196,2.5196,2.5196,2.5196,0,2.4914,2.4939,2.4957,2.4989,2.5008,2.5034,2.5052,2.5069,2.5076,2.509,2.5124,2.5146,2.5176,2.5186,2.5193,2.5227,2.5224,2.5222,2.5214,2.5236,2.5247,2.5251,2.5196,2.5196,2.5196,2.5196,0,0,2.4937,2.4977,2.4983,2.4998,2.503,2.505,2.5077,2.5106,2.512,2.5144,2.5166,2.5204,2.5203,2.522,2.5229,2.5246,2.5272,2.5243,2.5244,2.5247,2.531,2.531,2.5315,2.5274,2.5275,2.5276,2.5308,0,2.4965,2.5012,2.5026,2.5066,2.509,2.5099,2.5123,2.5144,2.5158,2.5181,2.5197,2.5223,2.522,2.523,2.5248,2.5265,2.5284,2.5263,2.5295,2.5296,2.5288,2.5321,2.5321,2.535,2.5312,2.5313,2.5313,0,2.5004,2.5028,2.5071,2.5099,2.511,2.5131,2.5159,2.5181,2.5206,2.5215,2.5235,2.5243,2.5271,2.5262,2.5302,2.5287,2.5302,2.5312,2.5314,2.5316,2.5305,2.5324,2.536,2.5364,2.532,2.532,2.5319,0,2.5016,2.5059,2.5091,2.5103,2.5138,2.5152,2.5167,2.5192,2.5208,2.5233,2.5244,2.5272,2.5287,2.5309,2.5324,2.5316,2.5363,2.5355,2.5371,2.5371,2.538,2.5379,2.5417,2.539,2.539,2.539,2.539,0,2.5045,2.5071,2.5096,2.5115,2.5145,2.5161,2.5189,2.5205,2.5227,2.5249,2.5259,2.528,2.53,2.5323,2.5336,2.5367,2.5374,2.5382,2.5385,2.5381,2.5379,2.539,2.5388,2.5391,2.5391,2.5391,2.539,0,2.5063,2.5081,2.5116,2.5146,2.5154,2.5174,2.52,2.5219,2.5234,2.5262,2.527,2.5293,2.5322,2.534,2.5376,2.5385,2.5418,2.5421,2.541,2.5411,2.5426,2.5424,2.5471,2.5478,2.5447,2.5447,2.5448,0,2.508,2.51,2.5133,2.5148,2.5164,2.5189,2.5206,2.5224,2.5241,2.5272,2.5288,2.5317,2.5341,2.5386,2.5406,2.5434,2.5437,2.5452,2.5441,2.5437,2.5437,2.5435,2.5437,2.5454,2.5454,2.5454,2.5454,0,2.5109,2.5117,2.5142,2.517,2.519,2.5213,2.5236,2.5249,2.527,2.529,2.5319,2.5338,2.5375,2.5404,2.5434,2.545,2.5455,2.5458,2.5463,2.5458,2.5451,2.5454,2.5414,2.5456,2.5456,2.5456,2.5456,2.5456,2.5126,2.5145,2.517,2.5198,2.5217,2.5239,2.5258,2.5276,2.5301,2.5332,2.5341,2.5372,2.5398,2.5438,2.5455,2.5479,2.5477,2.5485,2.5487,2.5488,2.5488,2.5447,2.5485,2.5485,2.5485,2.5485,2.5485,0,2.5155,2.5172,2.5197,2.5229,2.5251,2.5256,2.5281,2.5299,2.5326,2.535,2.5374,2.5408,2.5436,2.5459,2.5488,2.5503,2.5507,2.551,2.5509,2.5512,2.5488,2.5481,2.5507,2.5507,2.5507,2.5507,2.5507,2.5507,2.5172,2.5203,2.5215,2.5256,2.5274,2.5304,2.5318,2.5338,2.5357,2.5395,2.5418,2.5433,2.5457,2.5488,2.5514,2.5521,2.5531,2.5534,2.554,2.5517,2.5514,2.5512,2.5505,2.5536,2.5536,2.5562,2.5563,2.5563]},{"header":{"parameterUnit":"m.s-1","parameterCategory":1,"la1":30.2991,"la2":30.254,"lo1":-89.0895,"lo2":-89.0444,"dy":0.0017,"dx":0.0017,"nx":28,"ny":28,"refTime":"2023-06-18T21:00:00:Z","depth":0,"parameterNumber":3,"parameterNumberName":"V-component_of_WINDS"},"data":[0,0,0,0,0,0,0,0,0,0,0,0,0,0,0,0,0,0,0,0,0,0,0,0,0,0,0,0,0,0,0,0,0,0,0,0,0,0,0,0,0,0,0,0,0,0,0,0,0,0,0,0,0,0,0,0,0,0,4.0607,4.0608,0,4.0692,4.0693,4.0694,4.0698,4.0697,4.0696,4.0695,4.0779,4.0782,4.0785,0,0,0,0,0,0,0,0,0,0,0,0,0,4.0443,4.0446,4.0607,4.0608,4.0609,4.0692,4.0693,4.0695,4.0699,4.0697,4.0696,4.0695,4.0778,4.0781,4.0785,0,0,0,0,0,0,0,0,0,0,0,0,0,4.052,4.0447,4.0606,4.0621,4.0623,4.0692,4.0693,4.0695,4.0699,4.0697,4.0696,4.0694,4.0776,4.0781,4.0786,4.0844,0,0,4.08,4.0802,0,0,0,0,0,0,0,0,4.0516,4.0526,4.0618,4.062,4.0623,4.0683,4.0666,4.0745,4.0699,4.067,4.0695,4.0694,4.0748,4.0755,4.0774,4.0848,4.0852,4.08,4.0803,4.0805,4.0807,0,0,0,0,0,0,0,4.051,4.0522,4.064,4.0619,4.0622,4.0622,4.0631,4.0681,4.0716,4.0672,4.0673,4.0683,4.0749,4.0769,4.0776,4.0853,4.08,4.0805,4.0807,4.0809,4.0981,4.0982,0,0,0,0,0,0,4.0503,4.0518,4.0638,4.0643,4.0564,4.0626,4.0637,4.0665,4.0716,4.0722,4.0684,4.0683,4.0762,4.077,4.0779,4.0851,4.0805,4.081,4.0812,4.0979,4.0981,4.0983,0,0,0,0,0,0,4.0499,4.0513,4.0634,4.0581,4.0596,4.0631,4.0663,4.0668,4.0688,4.0725,4.073,4.0699,4.0761,4.0772,4.0829,4.0854,4.0812,4.0816,4.0977,4.098,4.0982,4.0996,0,0,0,0,0,0,4.0494,4.0512,4.0535,4.0581,4.0599,4.0683,4.0664,4.067,4.0697,4.0696,4.074,4.0746,4.0761,4.0822,4.0833,4.086,4.082,4.0975,4.0978,4.0981,4.0993,4.0999,4.1004,0,0,0,0,0,4.0489,4.0535,4.0536,4.0551,4.0629,4.0685,4.0695,4.0712,4.0699,4.0722,4.0746,4.0745,4.085,4.0827,4.084,4.0869,4.0973,4.0977,4.0981,4.0991,4.0998,4.1003,0,0,0,0,0,0,4.0489,4.0541,4.0543,4.0606,4.0641,4.0685,4.0715,4.0719,4.0757,4.0754,4.0774,4.0783,4.0839,4.086,4.0834,4.0929,4.091,4.0917,4.0913,4.092,4.0925,4.0918,4.0824,0,0,0,0,0,4.0497,4.0539,4.0582,4.0633,4.0651,4.068,4.0705,4.0716,4.0752,4.0767,4.0794,4.0829,4.087,4.0896,4.0936,4.0997,4.1007,4.1023,4.1028,4.1032,4.1037,4.1072,4.1079,4.0996,4.0996,4.0996,0,0,4.0512,4.0546,4.0571,4.0634,4.0662,4.0705,4.0692,4.0737,4.0769,4.0773,4.0828,4.085,4.089,4.0949,4.0976,4.0968,4.1063,4.1037,4.104,4.1043,4.1076,4.1084,4.1091,4.0998,4.0998,4.0997,0,0,4.0562,4.0592,4.0638,4.0668,4.0712,4.0732,4.0743,4.0787,4.0802,4.0859,4.0863,4.09,4.097,4.0999,4.1022,4.1085,4.1085,4.1098,4.1123,4.1156,4.1163,4.1169,4.1191,4.1199,4.1103,4.1103,4.1103,0,4.0575,4.064,4.0661,4.0707,4.0734,4.0743,4.0789,4.0816,4.087,4.0888,4.0879,4.0968,4.0995,4.1061,4.1077,4.1096,4.1108,4.1092,4.1161,4.1167,4.1172,4.1194,4.1202,4.1104,4.1104,4.1104,4.1104,0,4.0654,4.07,4.0732,4.0786,4.0817,4.0863,4.0889,4.0918,4.0927,4.0947,4.1005,4.1038,4.1085,4.1102,4.111,4.117,4.1163,4.1157,4.1138,4.1181,4.1202,4.121,4.1106,4.1105,4.1105,4.1105,0,0,4.0704,4.0772,4.0783,4.0808,4.0858,4.0893,4.094,4.0987,4.1011,4.1049,4.1088,4.1148,4.1143,4.117,4.1181,4.1211,4.1259,4.1201,4.1202,4.121,4.1326,4.133,4.1339,4.126,4.1262,4.1263,4.1323,0,4.0759,4.0843,4.0864,4.0935,4.0977,4.0987,4.1027,4.1062,4.1083,4.1121,4.1143,4.1186,4.1176,4.1193,4.1222,4.1246,4.1282,4.1243,4.1295,4.1296,4.1284,4.135,4.1354,4.1409,4.1331,4.1332,4.1333,0,4.0834,4.0875,4.0951,4.0998,4.1016,4.1052,4.1098,4.1135,4.1174,4.1187,4.1219,4.1228,4.1276,4.1256,4.1322,4.1295,4.1318,4.1333,4.1335,4.134,4.1317,4.1355,4.1427,4.1434,4.1346,4.1345,4.1344,0,4.0862,4.0937,4.0992,4.1014,4.1069,4.1094,4.1118,4.1157,4.1185,4.1225,4.1243,4.1287,4.1311,4.1345,4.1366,4.135,4.143,4.1412,4.1442,4.1441,4.1457,4.1455,4.1532,4.1473,4.1473,4.1473,4.1473,0,4.092,4.0966,4.1006,4.104,4.1092,4.1115,4.1165,4.1189,4.1224,4.1262,4.1273,4.1308,4.1334,4.1373,4.139,4.1442,4.1453,4.1464,4.1468,4.1463,4.1461,4.1477,4.1473,4.1475,4.1475,4.1474,4.1474,0,4.096,4.0988,4.1049,4.1098,4.1111,4.1147,4.1188,4.1221,4.1243,4.1292,4.1304,4.1338,4.1385,4.141,4.1467,4.1478,4.1537,4.1539,4.1524,4.1525,4.1553,4.155,4.1642,4.1655,4.1588,4.1589,4.1589,0,4.0994,4.103,4.1084,4.1111,4.1136,4.1179,4.1209,4.1234,4.1263,4.1313,4.1339,4.1387,4.1426,4.15,4.1529,4.1573,4.1576,4.1605,4.1582,4.1577,4.1576,4.1573,4.1577,4.1608,4.1609,4.161,4.161,0,4.1053,4.1066,4.1108,4.1156,4.1191,4.123,4.1267,4.1289,4.132,4.1353,4.1402,4.1432,4.1492,4.1539,4.1586,4.161,4.1615,4.1618,4.1627,4.1621,4.1611,4.1617,4.1534,4.1615,4.1614,4.1614,4.1614,4.1613,4.109,4.1123,4.1166,4.1213,4.1245,4.1281,4.1315,4.1342,4.1384,4.1436,4.1448,4.1499,4.1539,4.1604,4.1629,4.1669,4.1663,4.1676,4.1679,4.1682,4.1683,4.1606,4.1677,4.1677,4.1677,4.1677,4.1677,0,4.1148,4.1178,4.1221,4.1275,4.1312,4.1317,4.1359,4.139,4.1435,4.1473,4.1512,4.1569,4.1615,4.1649,4.1696,4.1721,4.1725,4.1733,4.173,4.1736,4.1686,4.1673,4.1729,4.1729,4.1729,4.1729,4.1729,4.1729,4.1183,4.1239,4.1258,4.1329,4.1358,4.141,4.1434,4.1467,4.1497,4.156,4.1599,4.1622,4.1658,4.1708,4.1751,4.176,4.1776,4.1784,4.1792,4.1745,4.1739,4.1734,4.1722,4.1787,4.1787,4.1839,4.184,4.184]}]]